Time,TemperatureF,DewpointF,PressureIn,WindDirection,WindDirectionDegrees,WindSpeedMPH,WindSpeedGustMPH,Humidity,HourlyPrecipIn,Conditions,Clouds,dailyrainin,SoftwareType,DateUTC
2013-03-23 00:10:00,-999.0,-99.9,0.00,North,-999,-999.0,-999.0,-999,-99.99,,,0.00,weatherlink.com 1.10,2013-03-23 04:10:00,
2013-03-23 00:25:00,-999.0,-99.9,0.00,North,-999,-999.0,-999.0,-999,-99.99,,,0.00,weatherlink.com 1.10,2013-03-23 04:25:00,
2013-03-23 00:40:00,-999.0,-99.9,0.00,North,-999,-999.0,-999.0,-999,-99.99,,,0.00,weatherlink.com 1.10,2013-03-23 04:40:00,
2013-03-23 00:55:00,-999.0,-99.9,0.00,North,-999,-999.0,-999.0,-999,-99.99,,,0.00,weatherlink.com 1.10,2013-03-23 04:55:00,
2013-03-23 01:10:00,-999.0,-99.9,0.00,North,-999,-999.0,-999.0,-999,-99.99,,,0.00,weatherlink.com 1.10,2013-03-23 05:10:00,
2013-03-23 01:25:00,-999.0,-99.9,0.00,North,-999,-999.0,-999.0,-999,-99.99,,,0.00,weatherlink.com 1.10,2013-03-23 05:25:00,
2013-03-23 01:40:00,-999.0,-99.9,0.00,North,-999,-999.0,-999.0,-999,-99.99,,,0.00,weatherlink.com 1.10,2013-03-23 05:40:00,
2013-03-23 01:55:00,-999.0,-99.9,0.00,North,-999,-999.0,-999.0,-999,-99.99,,,0.00,weatherlink.com 1.10,2013-03-23 05:55:00,
2013-03-23 02:11:00,-999.0,-99.9,0.00,North,-999,-999.0,-999.0,-999,-99.99,,,0.00,weatherlink.com 1.10,2013-03-23 06:11:00,
2013-03-23 02:26:00,-999.0,-99.9,0.00,North,-999,-999.0,-999.0,-999,-99.99,,,0.00,weatherlink.com 1.10,2013-03-23 06:26:00,
2013-03-23 02:41:00,-999.0,-99.9,0.00,North,-999,-999.0,-999.0,-999,-99.99,,,0.00,weatherlink.com 1.10,2013-03-23 06:41:00,
2013-03-23 03:26:00,-999.0,-99.9,0.00,North,-999,-999.0,-999.0,-999,-99.99,,,0.00,weatherlink.com 1.10,2013-03-23 07:26:00,
2013-03-23 03:41:00,-999.0,-99.9,0.00,North,-999,-999.0,-999.0,-999,-99.99,,,0.00,weatherlink.com 1.10,2013-03-23 07:41:00,
2013-03-23 03:56:00,-999.0,-99.9,0.00,North,-999,-999.0,-999.0,-999,-99.99,,,0.00,weatherlink.com 1.10,2013-03-23 07:56:00,
2013-03-23 04:11:00,-999.0,-99.9,0.00,North,-999,-999.0,-999.0,-999,-99.99,,,0.00,weatherlink.com 1.10,2013-03-23 08:11:00,
2013-03-23 04:26:00,-999.0,-99.9,0.00,North,-999,-999.0,-999.0,-999,-99.99,,,0.00,weatherlink.com 1.10,2013-03-23 08:26:00,
2013-03-23 04:41:00,-999.0,-99.9,0.00,North,-999,-999.0,-999.0,-999,-99.99,,,0.00,weatherlink.com 1.10,2013-03-23 08:41:00,
2013-03-23 04:56:00,-999.0,-99.9,0.00,North,-999,-999.0,-999.0,-999,-99.99,,,0.00,weatherlink.com 1.10,2013-03-23 08:56:00,
2013-03-23 05:11:00,-999.0,-99.9,0.00,North,-999,-999.0,-999.0,-999,-99.99,,,0.00,weatherlink.com 1.10,2013-03-23 09:11:00,
2013-03-23 05:27:00,-999.0,-99.9,0.00,North,-999,-999.0,-999.0,-999,-99.99,,,0.00,weatherlink.com 1.10,2013-03-23 09:27:00,
2013-03-23 05:42:00,-999.0,-99.9,0.00,North,-999,-999.0,-999.0,-999,-99.99,,,0.00,weatherlink.com 1.10,2013-03-23 09:42:00,
2013-03-23 05:57:00,-999.0,-99.9,0.00,North,-999,-999.0,-999.0,-999,-99.99,,,0.00,weatherlink.com 1.10,2013-03-23 09:57:00,
2013-03-23 06:12:00,-999.0,-99.9,0.00,North,-999,-999.0,-999.0,-999,-99.99,,,0.00,weatherlink.com 1.10,2013-03-23 10:12:00,
2013-03-23 06:27:00,-999.0,-99.9,0.00,North,-999,-999.0,-999.0,-999,-99.99,,,0.00,weatherlink.com 1.10,2013-03-23 10:27:00,
2013-03-23 06:42:00,-999.0,-99.9,0.00,North,-999,-999.0,-999.0,-999,-99.99,,,0.00,weatherlink.com 1.10,2013-03-23 10:42:00,
2013-03-23 06:57:00,-999.0,-99.9,0.00,North,-999,-999.0,-999.0,-999,-99.99,,,0.00,weatherlink.com 1.10,2013-03-23 10:57:00,
2013-03-23 07:12:00,-999.0,-99.9,0.00,North,-999,-999.0,-999.0,-999,-99.99,,,0.00,weatherlink.com 1.10,2013-03-23 11:12:00,
2013-03-23 07:27:00,-999.0,-99.9,0.00,North,-999,-999.0,-999.0,-999,-99.99,,,0.00,weatherlink.com 1.10,2013-03-23 11:27:00,
2013-03-23 07:42:00,-999.0,-99.9,0.00,North,-999,-999.0,-999.0,-999,-99.99,,,0.00,weatherlink.com 1.10,2013-03-23 11:42:00,
2013-03-23 07:57:00,-999.0,-99.9,0.00,North,-999,-999.0,-999.0,-999,-99.99,,,0.00,weatherlink.com 1.10,2013-03-23 11:57:00,
2013-03-23 08:12:00,-999.0,-99.9,0.00,North,-999,-999.0,-999.0,-999,-99.99,,,0.00,weatherlink.com 1.10,2013-03-23 12:12:00,
2013-03-23 08:27:00,-999.0,-99.9,0.00,North,-999,-999.0,-999.0,-999,-99.99,,,0.00,weatherlink.com 1.10,2013-03-23 12:27:00,
2013-03-23 08:42:00,-999.0,-99.9,0.00,North,-999,-999.0,-999.0,-999,-99.99,,,0.00,weatherlink.com 1.10,2013-03-23 12:42:00,
2013-03-23 08:57:00,-999.0,-99.9,0.00,North,-999,-999.0,-999.0,-999,-99.99,,,0.00,weatherlink.com 1.10,2013-03-23 12:57:00,
2013-03-23 09:13:00,-999.0,-99.9,0.00,North,-999,-999.0,-999.0,-999,-99.99,,,0.00,weatherlink.com 1.10,2013-03-23 13:13:00,
2013-03-23 09:28:00,-999.0,-99.9,0.00,North,-999,-999.0,-999.0,-999,-99.99,,,0.00,weatherlink.com 1.10,2013-03-23 13:28:00,
2013-03-23 09:43:00,-999.0,-99.9,0.00,North,-999,-999.0,-999.0,-999,-99.99,,,0.00,weatherlink.com 1.10,2013-03-23 13:43:00,
2013-03-23 09:58:00,-999.0,-99.9,0.00,North,-999,-999.0,-999.0,-999,-99.99,,,0.00,weatherlink.com 1.10,2013-03-23 13:58:00,
2013-03-23 10:13:00,-999.0,-99.9,0.00,North,-999,-999.0,-999.0,-999,-99.99,,,0.00,weatherlink.com 1.10,2013-03-23 14:13:00,
2013-03-23 10:28:00,-999.0,-99.9,0.00,North,-999,-999.0,-999.0,-999,-99.99,,,0.00,weatherlink.com 1.10,2013-03-23 14:28:00,
2013-03-23 10:43:00,-999.0,-99.9,0.00,North,-999,-999.0,-999.0,-999,-99.99,,,0.00,weatherlink.com 1.10,2013-03-23 14:43:00,
2013-03-23 10:58:00,-999.0,-99.9,0.00,North,-999,-999.0,-999.0,-999,-99.99,,,0.00,weatherlink.com 1.10,2013-03-23 14:58:00,
2013-03-23 11:13:00,45.6,27.0,0.00,NE,51,0.0,-999.0,48,-99.99,,,0.00,weatherlink.com 1.10,2013-03-23 15:13:00,
2013-03-23 11:28:00,46.8,27.0,0.00,NE,52,0.0,-999.0,46,-99.99,,,0.00,weatherlink.com 1.10,2013-03-23 15:28:00,
2013-03-23 11:43:00,47.1,27.0,0.00,NE,52,0.0,-999.0,45,-99.99,,,0.00,weatherlink.com 1.10,2013-03-23 15:43:00,
2013-03-23 11:58:00,47.8,27.0,0.00,NE,52,0.0,-999.0,45,-99.99,,,0.00,weatherlink.com 1.10,2013-03-23 15:58:00,
2013-03-23 12:13:00,49.2,26.0,0.00,ENE,61,0.0,-999.0,41,-99.99,,,0.00,weatherlink.com 1.10,2013-03-23 16:13:00,
2013-03-23 12:28:00,50.8,27.0,0.00,ENE,63,0.0,-999.0,40,-99.99,,,0.00,weatherlink.com 1.10,2013-03-23 16:28:00,
2013-03-23 12:43:00,51.0,27.0,0.00,ENE,64,0.0,-999.0,39,-99.99,,,0.00,weatherlink.com 1.10,2013-03-23 16:43:00,
2013-03-23 12:58:00,51.7,27.0,0.00,ENE,72,0.0,-999.0,39,-99.99,,,0.00,weatherlink.com 1.10,2013-03-23 16:58:00,
2013-03-23 13:13:00,51.1,26.0,0.00,ENE,71,0.0,-999.0,38,-99.99,,,0.00,weatherlink.com 1.10,2013-03-23 17:13:00,
2013-03-23 13:29:00,51.3,27.0,0.00,ENE,71,0.0,-999.0,39,-99.99,,,0.00,weatherlink.com 1.10,2013-03-23 17:29:00,
2013-03-23 13:44:00,54.5,27.0,0.00,ENE,72,0.0,-999.0,35,-99.99,,,0.00,weatherlink.com 1.10,2013-03-23 17:44:00,
2013-03-23 13:59:00,54.5,26.0,0.00,ENE,66,0.0,-999.0,34,-99.99,,,0.00,weatherlink.com 1.10,2013-03-23 17:59:00,
2013-03-23 14:14:00,54.6,27.0,0.00,ENE,68,0.0,-999.0,34,-99.99,,,0.00,weatherlink.com 1.10,2013-03-23 18:14:00,
2013-03-23 14:29:00,55.7,27.0,0.00,ENE,63,3.0,-999.0,33,-99.99,,,0.00,weatherlink.com 1.10,2013-03-23 18:29:00,
2013-03-23 14:44:00,52.9,27.0,0.00,ENE,61,0.0,-999.0,37,-99.99,,,0.00,weatherlink.com 1.10,2013-03-23 18:44:00,
2013-03-23 14:59:00,56.3,28.0,0.00,ENE,61,1.0,-999.0,34,-99.99,,,0.00,weatherlink.com 1.10,2013-03-23 18:59:00,
2013-03-23 15:14:00,58.0,29.0,0.00,ENE,61,0.0,-999.0,33,-99.99,,,0.00,weatherlink.com 1.10,2013-03-23 19:14:00,
2013-03-23 15:29:00,57.1,28.0,0.00,ENE,61,0.0,-999.0,33,-99.99,,,0.00,weatherlink.com 1.10,2013-03-23 19:29:00,
2013-03-23 15:44:00,58.9,29.0,0.00,ENE,67,0.0,-999.0,32,-99.99,,,0.00,weatherlink.com 1.10,2013-03-23 19:44:00,
2013-03-23 15:59:00,57.6,28.0,0.00,ENE,66,1.0,-999.0,32,-99.99,,,0.00,weatherlink.com 1.10,2013-03-23 19:59:00,
2013-03-23 16:14:00,57.8,28.0,0.00,East,79,0.0,-999.0,32,-99.99,,,0.00,weatherlink.com 1.10,2013-03-23 20:14:00,
2013-03-23 16:29:00,56.7,27.0,0.00,East,85,3.0,-999.0,32,-99.99,,,0.00,weatherlink.com 1.10,2013-03-23 20:29:00,
2013-03-23 16:44:00,54.7,26.0,0.00,NE,43,0.0,-999.0,33,-99.99,,,0.00,weatherlink.com 1.10,2013-03-23 20:44:00,
2013-03-23 16:59:00,54.8,27.0,0.00,NNE,27,6.0,-999.0,35,-99.99,,,0.00,weatherlink.com 1.10,2013-03-23 20:59:00,
2013-03-23 17:14:00,53.9,27.0,0.00,ENE,65,0.0,-999.0,36,-99.99,,,0.00,weatherlink.com 1.10,2013-03-23 21:14:00,
2013-03-23 17:29:00,53.3,27.0,0.00,ESE,109,4.0,-999.0,36,-99.99,,,0.00,weatherlink.com 1.10,2013-03-23 21:29:00,
2013-03-23 17:44:00,54.8,28.0,0.00,East,83,2.0,-999.0,36,-99.99,,,0.00,weatherlink.com 1.10,2013-03-23 21:44:00,
2013-03-23 17:59:00,54.9,28.0,0.00,NE,44,6.0,-999.0,36,-99.99,,,0.00,weatherlink.com 1.10,2013-03-23 21:59:00,
2013-03-23 18:14:00,54.9,28.0,0.00,WSW,237,2.0,-999.0,36,-99.99,,,0.00,weatherlink.com 1.10,2013-03-23 22:14:00,
2013-03-23 18:29:00,54.6,29.0,0.00,ENE,67,1.0,-999.0,37,-99.99,,,0.00,weatherlink.com 1.10,2013-03-23 22:29:00,
2013-03-23 18:44:00,52.3,28.0,0.00,ENE,75,4.0,-999.0,40,-99.99,,,0.00,weatherlink.com 1.10,2013-03-23 22:44:00,
2013-03-23 18:59:00,51.7,28.0,0.00,East,82,4.0,-999.0,41,-99.99,,,0.00,weatherlink.com 1.10,2013-03-23 22:59:00,
2013-03-23 19:14:00,50.9,28.0,0.00,East,89,1.0,-999.0,42,-99.99,,,0.00,weatherlink.com 1.10,2013-03-23 23:14:00,
2013-03-23 19:29:00,50.2,28.0,0.00,East,79,1.0,-999.0,43,-99.99,,,0.00,weatherlink.com 1.10,2013-03-23 23:29:00,
2013-03-23 19:44:00,-999.0,-99.9,0.00,North,-999,-999.0,-999.0,-999,-99.99,,,0.00,weatherlink.com 1.10,2013-03-23 23:44:00,
2013-03-23 19:59:00,-999.0,-99.9,0.00,North,-999,-999.0,-999.0,-999,-99.99,,,0.00,weatherlink.com 1.10,2013-03-23 23:59:00,
2013-03-23 20:14:00,-999.0,-99.9,0.00,North,-999,-999.0,-999.0,-999,-99.99,,,0.00,weatherlink.com 1.10,2013-03-24 00:14:00,
2013-03-23 20:29:00,-999.0,-99.9,0.00,North,-999,-999.0,-999.0,-999,-99.99,,,0.00,weatherlink.com 1.10,2013-03-24 00:29:00,
2013-03-23 20:44:00,-999.0,-99.9,0.00,North,-999,-999.0,-999.0,-999,-99.99,,,0.00,weatherlink.com 1.10,2013-03-24 00:44:00,
2013-03-23 20:59:00,-999.0,-99.9,0.00,North,-999,-999.0,-999.0,-999,-99.99,,,0.00,weatherlink.com 1.10,2013-03-24 00:59:00,
2013-03-23 21:14:00,-999.0,-99.9,0.00,North,-999,-999.0,-999.0,-999,-99.99,,,0.00,weatherlink.com 1.10,2013-03-24 01:14:00,
2013-03-23 21:29:00,-999.0,-99.9,0.00,North,-999,-999.0,-999.0,-999,-99.99,,,0.00,weatherlink.com 1.10,2013-03-24 01:29:00,
2013-03-23 21:44:00,-999.0,-99.9,0.00,North,-999,-999.0,-999.0,-999,-99.99,,,0.00,weatherlink.com 1.10,2013-03-24 01:44:00,
2013-03-23 22:00:00,-999.0,-99.9,0.00,North,-999,-999.0,-999.0,-999,-99.99,,,0.00,weatherlink.com 1.10,2013-03-24 02:00:00,
2013-03-23 22:15:00,-999.0,-99.9,0.00,North,-999,-999.0,-999.0,-999,-99.99,,,0.00,weatherlink.com 1.10,2013-03-24 02:15:00,
2013-03-23 22:30:00,-999.0,-99.9,0.00,North,-999,-999.0,-999.0,-999,-99.99,,,0.00,weatherlink.com 1.10,2013-03-24 02:30:00,
2013-03-23 22:45:00,-999.0,-99.9,0.00,North,-999,-999.0,-999.0,-999,-99.99,,,0.00,weatherlink.com 1.10,2013-03-24 02:45:00,
2013-03-23 23:00:00,-999.0,-99.9,0.00,North,-999,-999.0,-999.0,-999,-99.99,,,0.00,weatherlink.com 1.10,2013-03-24 03:00:00,
2013-03-23 23:15:00,-999.0,-99.9,0.00,North,-999,-999.0,-999.0,-999,-99.99,,,0.00,weatherlink.com 1.10,2013-03-24 03:15:00,
2013-03-23 23:30:00,-999.0,-99.9,0.00,North,-999,-999.0,-999.0,-999,-99.99,,,0.00,weatherlink.com 1.10,2013-03-24 03:30:00,
2013-03-23 23:45:00,-999.0,-99.9,0.00,North,-999,-999.0,-999.0,-999,-99.99,,,0.00,weatherlink.com 1.10,2013-03-24 03:45:00,